{"data":{"norad_id":51998,"intl_designator":"2022-025AU","name":"STARLINK-3618","alt_names":[],"object_type":"PAYLOAD","status":"ACTIVE","operator":null,"country":"US","launch_date":"2022-03-09","launch_site_code":"AFETR","launch_vehicle":null,"mission":null,"orbit_class":"UNKNOWN","rcs_meters":null,"size_class":null,"mass_kg":null,"dimensions":null,"purposes":["comms"],"wikipedia_slug":null,"has_3d_model":false,"image_url":null,"decayed_at":null,"tle_current":{"epoch":"2026-05-25T03:20:24.093600Z","epoch_age_seconds":56180,"freshness":"FRESH","line1":"1 51998U 22025AU  26145.13916775 -.00000312  00000+0 -14800-5 0  9995","line2":"2 51998  53.2144  35.9242 0001480  81.7956 278.3204 15.08843932232463","mean_motion":15.08843932,"eccentricity":0.000148,"inclination_deg":53.2144,"raan_deg":35.9242,"arg_perigee_deg":81.7956,"mean_anomaly_deg":278.3204,"bstar":-1.48e-6,"rev_number":23246,"period_min":95.437305970489,"perigee_km":538.7075259204,"apogee_km":540.75521495805,"semimajor_km":6917.8683704392,"source":"CELESTRAK","updated_at":"2026-05-25T13:38:16.999523Z"}}}